Find Starlink 11475

NORAD ID: 62226 Int'l Des: 2024-231 Owner: SPXS Country: US Constellation: starlink operational
LEOCIRCULAR

实时位置

正在加载3D地球...

关于 Starlink 11475

正在加载描述...

即将过境

Passes for default location (London). Set your location on the main map for personalized predictions.

高度历史

Loading altitude history...

两行轨道根数

1 62226U 24231J 26127.83842631 .00144602 00000-0 11756-2 0 9992
2 62226 53.1566 169.5235 0001437 63.6646 296.4520 15.69754168 82700
Epoch: May 7, 2026 • Age: 7 hours

当前状态

高度 378.7 km
速度 7.68 km/s
星下点 -53.30°S, 163.11°E
发射日期 Dec 5, 2024
运行时间 1.4 years
类型 internet

技术详情

分类 Payload
质量 960.00 kg
干质量 910.00 kg
总质量 960.00 kg
长度 0.30 m
直径 4.10 m
跨度 29.00 m
形状 Box + pan
制造商 SPXS
平台类型 Starlink V2MD
阶段状态 In Orbit
所有者/国家 SPXS/US

Most Searched